Regional Weather Roundup
Issued by NWS

Home | Current Version | Previous Version | Graphics & Text | Print | Product List | Glossary On
Versions: 1 2 3 4 5 6 7 8 9 10 11 12 13 14 15 16 17 18 19 20 21 22 23 24 25 26 27 28 29 30 31 32 33 34 35 36 37 38 39 40 41 42 43 44 45 46 47 48 49 50
000
ASUS43 KLOT 262206
RWRIL

ILLINOIS REGIONAL WEATHER ROUNDUP
NATIONAL WEATHER SERVICE CHICAGO/ROMEOVILLE IL
400 PM CST THU FEB 26 2015

NOTE: "FAIR" INDICATES FEW OR NO CLOUDS BELOW 12,000 FEET WITH NO
SIGNIFICANT WEATHER AND/OR OBSTRUCTIONS TO VISIBILITY.

* THESE STATIONS ARE NOT UNDER NWS QUALITY CONTROL. THEY ALSO MAY NOT
  REPORT WEATHER SUCH AS PRECIPITATION OR FOG.

ILZ001-002-007-009-015-016-024-262300-
NORTHWEST ILLINOIS

CITY           SKY/WX    TMP DP  RH WIND       PRES   REMARKS
MOLINE         MOSUNNY   13   0  56 NW15      30.36R WCI  -3
STERLING*      PTSUNNY   14   1  57 N10G16    30.35R WCI   1
SAVANNA*       MOSUNNY   15  -4  43 N12       30.35S WCI   2
$$

ILZ003-004-008-010-011-017-018-262300-
NORTH CENTRAL ILLINOIS

CITY           SKY/WX    TMP DP  RH WIND       PRES   REMARKS
ROCKFORD       SUNNY     13  -5  44 N14       30.34R WCI  -2
FREEPORT*      SUNNY     10  -4  53 N9        30.34S WCI  -3
ROCHELLE*      SUNNY     11   0  60 N8        30.33R WCI   0
DE KALB*       SUNNY     10  -2  59 N12       30.31R WCI  -5
PERU*          CLOUDY    16   4  60 N12       30.34R WCI   2
$$

ILZ005-006-012>014-019>023-262300-
NORTHEAST ILLINOIS

CITY           SKY/WX    TMP DP  RH WIND       PRES   REMARKS
CHICAGO-OHARE  MOSUNNY   14  -1  51 NW14      30.28R WCI  -1
CHICAGO-MIDWAY PTSUNNY   20   2  45 N10       30.28R WCI   9
AURORA         SUNNY     12   2  64 NW16      30.30R WCI  -5
LANSING*       FLURRIES  18   9  69 N9G17     30.27R WCI   6
JOLIET*        PTSUNNY   18   3  51 NW10G16   30.30R WCI   6
WAUKEGAN       SUNNY     15  -4  42 VRB7      30.29R WCI   5
DUPAGE AIRPORT SUNNY     15   0  51 NW14      30.28R WCI   0
KANKAKEE*      CLOUDY    19  12  73 N12G17    30.29R WCI   7
WHEELING       SUNNY     17  -1  45 NW10      30.30R WCI   5
MORRIS*        SUNNY     16   6  65 NW9       30.30R WCI   4
ROMEOVILLE*    CLOUDY    17   3  54 N16       30.28R WCI   2
NORTHERLY ISL    N/A     17   3  54 N12         N/A  WCI   4
$$

LMZ740>746-262300-
SOUTHERN LAKE MICHIGAN

STATION/POSITION SKY/WX   TEMP    WIND        PRES    VSBY  WAVE
                          AIR SEA DIR/SP/G                  HT/PER
                          (F)     (DEG/KT/KT) (MB)    (MI)  (FT/S)
WAUKEGAN HARBOR            16     320/ 10/ 16   N/A
HARRISON CRIB              17     330/ 17/ 23   N/A
BURNHAM HARBOR             16     350/ 11/ 17   N/A
CALUMET HARBOR             17     320/ 12/ 20 1024.1R
MICHIGAN CITY              15     350/ 17/ 21   N/A
$$

ILZ025>027-034>036-040-047-049-050-058-095>099-262300-
WEST-CENTRAL ILLINOIS

CITY           SKY/WX    TMP DP  RH WIND       PRES   REMARKS
QUINCY         SUNNY     13   0  56 NW16      30.37R WCI  -3
GALESBURG*     SUNNY     12   4  70 NW12      30.36R WCI  -2
MACOMB*        SUNNY     12   4  70 NW15      30.39R WCI  -4
JACKSONVILLE*  CLOUDY    19   9  65 NW14      30.35R WCI   5
PITTSFIELD*    MOSUNNY   18   5  57 NW13      30.37R WCI   5
$$

ILZ028>032-037-038-041>044-048-051>054-059>061-262300-
CENTRAL ILLINOIS

CITY           SKY/WX    TMP DP  RH WIND       PRES   REMARKS
PONTIAC        SUNNY     17  10  73 NW14      30.31R WCI   3
BLOOMINGTON    MOSUNNY   17  10  74 N16       30.30R WCI   2
DECATUR        CLOUDY    19  13  77 N15       30.29R HAZE    WCI   5
PEORIA         CLOUDY    16   6  65 N9G17     30.34R WCI   4
LACON*         CLOUDY    14   3  62 N12       30.34R WCI   0
LINCOLN*       FLURRIES  21  14  73 NW9       30.34R WCI  11
SPRINGFIELD    LGT SNOW  19  11  70 NW13      30.33R WCI   6
TAYLORVILLE    FLURRIES  19  12  73 NW14      30.31R WCI   6
$$

ILZ033-039-045-046-055>057-062-063-262300-
EAST-CENTRAL ILLINOIS

CITY           SKY/WX    TMP DP  RH WIND       PRES   REMARKS
CHAMPAIGN      PTSUNNY   19   9  65 N17       30.27R WCI   4
DANVILLE*      MOSUNNY   17   9  72 N13       30.24R WCI   3
RANTOUL*       MOSUNNY   20  10  66 N14G20    30.28R WCI   7
MATTOON        CLOUDY    21  11  65 N15       30.25R WCI   8
PARIS*         FLURRIES  21  14  73 NW9       30.26R WCI  11
$$

ILZ079-100>102-262300-
SOUTHWEST ILLINOIS

CITY           SKY/WX    TMP DP  RH WIND       PRES   REMARKS
ALTON          FLURRIES  21  10  63 NW17      30.34R WCI   7
BELLEVILLE     FLURRIES  23  14  68 N15       30.32R WCI  10
CAHOKIA*       CLOUDY    23  15  71 NW13      30.34R WCI  11
SPARTA*        CLOUDY    23  15  71 N13       30.31R WCI  11
$$

ILZ064>066-069>071-074>076-080>082-084>086-088>090-092>094-262300-
SOUTH-CENTRAL ILLINOIS

CITY           SKY/WX    TMP DP  RH WIND       PRES   REMARKS
CARBONDALE     FLURRIES  26  16  65 N16       30.28R WCI  14
CAIRO*         CLOUDY    29  21  71 NW17      30.27R WCI  17
EFFINGHAM*     LGT SNOW  23  13  66 NW12      30.29R WCI  12
MARION         CLOUDY    27  18  69 N9G18     30.27R WCI  17
MT. VERNON     CLOUDY    25  12  58 N7        30.28R WCI  17
CENTRALIA*     CLOUDY    23  15  70 NW18      30.29R WCI   9
SALEM*         PTSUNNY   25  15  66 N17       30.29R WCI  11
METROPOLIS*    FLURRIES  28  23  82 NW10      30.24R WCI  18
$$

ILZ067-068-072-073-078-083-087-091-262300-
SOUTHEAST ILLINOIS

CITY           SKY/WX    TMP DP  RH WIND       PRES   REMARKS
LAWRENCEVILLE  CLOUDY    26  15  63 N18       30.25R WCI  13
FLORA*         CLOUDY    24  15  67 NW13      30.27R WCI  13
FAIRFIELD*     CLOUDY    26  16  66 N12G18    30.26R WCI  15
HARRISBURG*    FLURRIES  28  19  69 N9G16     30.27R WCI  19
ROBINSON*      PTSUNNY   24  15  68 N13       30.26R WCI  12
CARMI*         PTSUNNY   29  21  73 N15       30.25R WCI  17
$$

ABBREVIATIONS USED IN REMARKS
   TC - TEMPERATURE IN CELSIUS
  WCI - WIND CHILL INDEX
   HX - HEAT INDEX
  VSB - VISIBILITY
$$




USA.gov is the U.S. government's official web portal to all federal, state and local government web resources and services.